羽根田-カンポス彗星

D/1978 R1 ( Haneda-Campos ) 1997

English version
Home page
Updated on December 6, 1996

---------------------------------------------------------------------

・ プロフィール

・ 軌道要素

Epoch 1997 Aug. 20.0 TT = JDT 2450680.5
T 1997 Aug. 15.79983 TT                                 Muraoka
q   1.2669704            (2000.0)            P               Q
n   0.15430066     Peri.  307.05031     +0.96898496     -0.23410094
a   3.4426341      Node    66.60976     +0.24513439     +0.87004412
e   0.6319764      Incl.    4.94721     +0.03126141     +0.43384327
P   6.39
>From 56 observations 1978 July 30-Nov. 29, mean residual 1".27.

・ 星図

・ 1997年 5月 2日〜1997年12月28日

・ 光度変化

        m1 = 13.0 + 5 logΔ + 25.0 log r

---------------------------------------------------------------------

軌道要素は村岡健治氏の計算によるものです。
星図は StellaNavigator Ver.2.0 for Windows (アストロアーツ 編著 / アスキー出版局刊) で作成したものです。
光度グラフはComet for Windowsで作成したものです。

---------------------------------------------------------------------

Copyright(C) Seiichi Yoshida (comet@aerith.net). All rights reserved.